Location: Bidwell Hollow
(37.7387°N, 90.1707°W)
Time: 02:04:50
(UTC+00:00)

Tiros 1 despin weight - Pass Details

Date: 18 May 2026
Orbit: 554 x 591 km, 48.2° (Epoch: 6 June)

Event Time Altitude Azimuth Distance (km) Brightness Sun altitude
Rises 12:08:41 0° 288° (WNW) 2,753 ? 14.1°
Reaches altitude 10° 12:11:27 10° 306° (NW) 1,851 ? 14.6°
Maximum altitude 12:14:36 20° 354° (N) 1,320 ? 15.2°
Drops below altitude 10° 12:17:45 10° 43° (NE) 1,840 ? 15.8°
Sets 12:20:29 0° 60° (ENE) 2,731 ? 16.3°
